Location: ????????
(55.7667°N, 37.4833°E)
Time: 14:53:38
(UTC+00:00)

Okean 3 Rocket - Pass Details

Date: 19 May 2025
Orbit: 611 x 638 km, 82.5° (Epoch: 21 June)

Event Time Altitude Azimuth Distance (km) Brightness Sun altitude
Rises 20:12:19 0° 347° (NNW) 2,901 9.1 -12.7°
Reaches altitude 10° 20:14:33 10° 348° (NNW) 1,994 7.7 -12.7°
Maximum altitude 20:18:58 89° 260° (W) 629 3.5 -12.9°
Enters shadow 20:22:00 20° 170° (S) 1,438 4.8 -13.0°
